AO-07 1 07530U 74089B 22258.52729475 -.00000036 00000-0 59789-4 0 9995 2 07530 101.9145 238.7102 0011859 228.8057 250.6431 12.53656909188753 UO-11 1 14781U 84021B 22258.54978452 .00001114 00000-0 14053-3 0 9992 2 14781 97.6258 241.9190 0009239 34.7180 325.4636 14.83798904 53406 LO-19 1 20442U 90005G 22258.44776207 .00000153 00000-0 72403-4 0 9991 2 20442 98.8038 224.7251 0010603 264.6876 95.3098 14.33084929705999 HUBBLE 1 20580U 90037B 22258.48208944 .00003329 00000-0 18426-3 0 9993 2 20580 28.4701 292.1290 0002223 287.4344 214.9044 15.10873000579847 MET-2/21 1 22782U 93055A 22258.59810278 .00000077 00000-0 55759-4 0 9991 2 22782 82.5477 302.6962 0023645 94.6413 15.6439 13.83859570466475 AO-27 1 22825U 93061C 22258.55397507 .00000066 00000-0 43438-4 0 9996 2 22825 98.8812 291.4705 0009108 143.6008 216.5794 14.30191067511031 IO-26 1 22826U 93061D 22258.55534910 .00000080 00000-0 48535-4 0 9997 2 22826 98.8757 291.3457 0009818 131.4295 228.7732 14.30539435511294 FO-29 1 24278U 96046B 22258.57008829 -.00000010 00000-0 23391-4 0 9990 2 24278 98.5157 269.8572 0351073 49.5913 313.5306 13.53120171287797 NOAA-15 1 25338U 98030A 22258.50329428 .00000114 00000-0 65716-4 0 9998 2 25338 98.6391 286.8393 0011027 40.5125 319.6874 14.26170532265851 GO-32 1 25397U 98043D 22258.45226399 .00000081 00000-0 55202-4 0 9996 2 25397 98.8253 209.1895 0001189 154.7300 205.3937 14.23770357256232 ISS 1 25544U 98067A 22258.46226600 .00008923 00000-0 16287-3 0 9994 2 25544 51.6424 249.3402 0002275 235.4273 225.0596 15.50222663359187 NO-44 1 26931U 01043C 22258.49051791 .00000139 00000-0 84842-4 0 9997 2 26931 67.0515 185.9921 0006130 257.5977 102.4438 14.30732602 94287 SO-50 1 27607U 02058C 22258.55871830 .00001025 00000-0 16028-3 0 9991 2 27607 64.5562 26.1402 0081411 277.1980 81.9872 14.76239977 61676 CO-55 1 27844U 03031E 22258.53181967 .00000253 00000-0 13291-3 0 9990 2 27844 98.6811 264.8662 0009439 194.8042 165.2860 14.22493033996673 CO-57 1 27848U 03031J 22258.52300503 .00000206 00000-0 11274-3 0 9999 2 27848 98.6854 265.3578 0009090 209.8629 150.2031 14.22044668996486 RS-22 1 27939U 03042A 22258.54237472 .00000958 00000-0 17783-3 0 9993 2 27939 98.2055 39.3058 0011674 285.0335 74.9593 14.67461897 14256 NOAA-18 1 28654U 05018A 22258.50535308 .00000168 00000-0 11468-3 0 9995 2 28654 98.9423 328.8427 0015239 78.7390 281.5493 14.12775872892690 CO-58 1 28895U 05043F 22258.30148388 .00001334 00000-0 26048-3 0 9992 2 28895 98.1186 28.3594 0015898 214.9267 145.0894 14.64472818900566 Falconsat-3 1 30776U 07006E 22258.51036288 .00058423 00000-0 69577-3 0 9997 2 30776 35.4307 27.6530 0001186 110.6097 249.4764 15.59968594863622 CO-65 1 32785U 08021C 22258.43583435 .00002599 00000-0 27583-3 0 9993 2 32785 97.6670 226.4897 0011132 299.8909 60.1203 14.89859460779889 AAUSAT2 1 32788U 08021F 22258.49345560 .00005645 00000-0 48100-3 0 9990 2 32788 97.5410 240.6892 0011554 169.6815 190.4648 14.98090731781919 DO-64 1 32789U 08021G 22258.52698365 .00015514 00000-0 81858-3 0 9992 2 32789 97.3358 281.6580 0010184 23.7515 336.4186 15.15586429785561 CO-66 1 32791U 08021J 22258.39338006 .00004287 00000-0 41659-3 0 9993 2 32791 97.6206 231.8493 0011051 247.3785 112.6266 14.93064621780610 RS-30 1 32953U 08025A 22258.35820864 .00000024 00000-0 10000-3 0 9992 2 32953 82.5021 128.0408 0020233 63.7490 296.5668 12.43113114649501 PRISM 1 33493U 09002B 22258.52531169 .00006471 00000-0 51765-3 0 9999 2 33493 98.2387 250.2722 0013476 247.9125 112.0666 15.00511952742488 NOAA-19 1 33591U 09005A 22258.51680167 .00000142 00000-0 10190-3 0 9999 2 33591 99.1414 294.5180 0012986 296.9350 63.0494 14.12609095700909 SRMSAT 1 37841U 11058D 22258.51057275 .00000400 00000-0 74676-4 0 9997 2 37841 19.9726 70.5466 0011807 253.7577 144.4608 14.10771231563974 HRBE 1 37855U 11061F 22258.44088703 .00020562 00000-0 86439-3 0 9998 2 37855 101.7212 65.3088 0149176 152.5892 208.3296 15.13885025594842 RS-40 1 38735U 12041C 22258.51296725 .00000006 00000-0 -30646-4 0 9990 2 38735 82.4771 209.3364 0017000 170.9422 189.1973 12.42586792459706 ZACUBE-1 1 39417U 13066B 22258.47513697 .00002360 00000-0 29081-3 0 9995 2 39417 97.6460 225.9632 0059066 108.8734 251.8897 14.82591007476468 Delfi-N3xt 1 39428U 13066N 22258.35004296 .00005167 00000-0 79220-3 0 9992 2 39428 97.8148 188.8624 0116692 351.2743 8.6433 14.69525355471733 GOMX-1 1 39430U 13066Q 22258.49177693 .00001095 00000-0 20179-3 0 9997 2 39430 97.8009 160.5242 0150075 120.6417 240.9697 14.60349558469431 LO-74 1 39440U 13066AA 22258.41443414 .00001768 00000-0 24447-3 0 9996 2 39440 97.7342 212.2378 0077731 198.5810 161.2559 14.77248537473568 AO-73 1 39444U 13066AE 22258.42478672 .00003364 00000-0 40100-3 0 9993 2 39444 97.6339 228.3342 0057998 96.9905 263.7911 14.83725257474865 SPROUT 1 39770U 14029E 22258.28963671 .00007913 00000-0 78881-3 0 9998 2 39770 97.9499 15.8763 0009546 148.0362 212.1703 14.91815967451055 DTUSAT-2 1 40030U 14033W 22258.35955332 .00003596 00000-0 37584-3 0 9995 2 40030 97.9385 191.5115 0013057 114.3299 245.9283 14.90254357447039 EO-80 1 40032U 14033Y 22258.53488899 .00002503 00000-0 26367-3 0 9990 2 40032 97.9390 191.7024 0012940 114.7602 245.4963 14.90227798447039 HODOYOSHI-1 1 40299U 14070B 22258.63746796 .00006152 00000-0 22969-3 0 9998 2 40299 97.2359 324.1167 0012420 169.8524 348.0935 15.27664083436826 FIREBIRD FU3 1 40377U 15003B 22258.49975782 .00023156 00000-0 64515-3 0 9991 2 40377 99.0847 143.6106 0096608 79.7247 281.4865 15.32163978422193 FIREBIRD FU4 1 40378U 15003C 22258.25818167 .00030034 00000-0 83250-3 0 9999 2 40378 99.0852 143.5458 0096519 80.1813 281.0305 15.32265039422168 GRIFEX 1 40379U 15003D 22258.53894219 .00013750 00000-0 46649-3 0 9990 2 40379 99.0981 128.7760 0113091 124.3946 236.8043 15.24678388421348 XW-2A 1 40903U 15049E 22258.62195475 .00030683 00000-0 42484-3 0 9998 2 40903 97.1696 317.4520 0010142 139.7583 16.2261 15.56990027393278 XW-2C 1 40906U 15049H 22258.56031172 .00006564 00000-0 30843-3 0 9994 2 40906 97.4965 261.3116 0015062 50.2136 67.8152 15.19843689386608 XW-2D 1 40907U 15049J 22258.60363722 .00007758 00000-0 35599-3 0 9998 2 40907 97.4954 261.4186 0014358 45.6330 50.9749 15.20611782386666 LILACSAT-2 1 40908U 15049K 22258.59233674 .00003822 00000-0 20055-3 0 9998 2 40908 97.5206 258.3247 0016864 66.9277 51.4895 15.16225500386146 XW-2E 1 40909U 15049L 22258.54316501 .00012002 00000-0 48368-3 0 9992 2 40909 97.4660 266.1026 0012486 27.5234 70.9695 15.24918087387136 XW-2F 1 40910U 15049M 22258.57154735 .00012000 00000-0 49126-3 0 9997 2 40910 97.4742 265.2872 0013484 28.6847 88.8760 15.24380463386905 XW-2B 1 40911U 15049N 22258.57343779 .00007494 00000-0 34525-3 0 9994 2 40911 97.4944 261.9591 0014229 47.9620 68.2827 15.20487488386549 DCBB 1 40912U 15049P 22258.58314910 .00013779 00000-0 51035-3 0 9999 2 40912 97.4364 269.6470 0011692 354.2954 121.9258 15.27703009387501 TW-1A 1 40928U 15051D 22258.56469215 .00072270 00000-0 66629-3 0 9992 2 40928 97.0321 280.8448 0007930 63.6721 98.3726 15.67358960392318 IO-86 1 40931U 15052B 22258.40432659 .00001121 00000-0 66501-4 0 9999 2 40931 5.9989 247.3894 0013539 2.5401 357.5118 14.76859779376660 AO-85 1 40967U 15058D 22257.18389412 .00001390 00000-0 16424-3 0 4784 2 40967 64.7751 161.9330 0183681 171.5528 188.8745 14.77697484 73779 ATHENOXAT-1 1 41168U 15077C 22258.35056863 .00019403 00000-0 76669-3 0 9999 2 41168 14.9828 143.1213 0009503 59.6790 87.8354 15.22927300374024 ChubuSat-2 1 41338U 16012B 22258.14421558 .00003123 00000-0 22814-3 0 9997 2 41338 31.0023 172.6973 0013363 321.9362 38.0330 15.01642153360977 ChubuSat-3 1 41339U 16012C 22258.13299529 .00002248 00000-0 16214-3 0 9992 2 41339 31.0110 169.6790 0013494 331.2099 28.7794 15.01696564360979 Horyu-4 1 41340U 16012D 22258.06207833 .00004714 00000-0 32849-3 0 9995 2 41340 31.0038 146.6587 0013089 11.1143 348.9781 15.03765832361222 e-st@r-II 1 41459U 16025D 22258.41803848 .00009898 00000-0 41478-3 0 9993 2 41459 98.1927 70.3955 0139983 323.9124 35.2763 15.15191101351119 AAUSAT4 1 41460U 16025E 22258.41435278 .00019341 00000-0 69553-3 0 9991 2 41460 98.1833 77.4779 0118350 296.9049 62.0179 15.22207208351617 LO-87 1 41557U 16033B 22258.49708775 .00017006 00000-0 47653-3 0 9993 2 41557 97.3904 356.4723 0011347 60.4055 5.3510 15.36614276351208 NuSat2 1 41558U 16033C 22258.49115002 .00017117 00000-0 45155-3 0 9997 2 41558 97.4122 2.6758 0010584 49.1392 81.4555 15.38493122351481 Lapan A3 1 41603U 16040E 22258.45301788 .00001464 00000-0 69126-4 0 9993 2 41603 97.1998 291.5397 0012407 197.5324 282.8767 15.20875536345712 Pratham 1 41783U 16059A 22258.34094375 .00000523 00000-0 10932-3 0 9996 2 41783 97.9063 296.2653 0032061 249.0553 110.7218 14.63423884318771 TY-1 1 41844U 16066D 22258.60162971 .00016111 00000-0 51659-3 0 9990 2 41844 97.3887 270.3132 0011411 336.9465 138.8204 15.32362848325409 CAS-2T 1 41847U 16066G 22258.20010860 .00000664 00000-0 11063-3 0 9999 2 41847 98.5428 322.7437 0362347 301.5054 55.1204 14.38721555307258 EO-88 1 42017U 17008BX 22258.14955957 .00029321 00000-0 80600-3 0 9998 2 42017 97.2597 323.0765 0003037 283.0400 77.0505 15.37158621310840 CAS-4B 1 42759U 17034B 22258.55707398 .00004961 00000-0 29276-3 0 9994 2 42759 43.0160 195.8481 0008343 140.5621 30.0732 15.12448834289998 CAS-4A 1 42761U 17034D 22258.31729954 .00004567 00000-0 26996-3 0 9991 2 42761 43.0167 195.8937 0008448 140.2156 356.3763 15.12528328289962 NIUSat 1 42766U 17036B 22258.36906802 .00013908 00000-0 51540-3 0 9994 2 42766 97.1952 293.0211 0013397 16.4546 343.7125 15.27656534290524 Aalto 1 1 42775U 17036L 22258.06466276 .00008950 00000-0 34321-3 0 9996 2 42775 97.1905 292.4843 0012464 17.7357 342.4315 15.26645060290443 URSA MAIOR 1 42776U 17036M 22258.33733243 .00010889 00000-0 40861-3 0 9998 2 42776 97.1920 293.5717 0012003 15.7989 344.3623 15.27316692290520 Max Valier Sat 1 42778U 17036P 22258.52305536 .00009895 00000-0 36180-3 0 9995 2 42778 97.1975 296.5646 0010621 16.7914 343.3676 15.28216114290659 Pegasus 1 42784U 17036V 22258.06097259 .00014702 00000-0 49936-3 0 9997 2 42784 97.1912 297.1510 0009867 19.0650 341.0959 15.30533452290713 NUDATSat 1 42787U 17036Y 22258.58002754 .00025626 00000-0 71584-3 0 9994 2 42787 97.1938 302.4990 0007566 5.0124 355.1205 15.36660366290925 SUCHAI 1 1 42788U 17036Z 22258.07340331 .00018384 00000-0 58323-3 0 9994 2 42788 97.1914 299.0591 0008807 14.2019 345.9469 15.32695014290903 SKCUBE 1 42789U 17036AA 22258.11955650 .00016347 00000-0 53470-3 0 9991 2 42789 97.1915 298.4578 0009044 15.3157 344.8357 15.31736507290795 VZLUSAT 1 1 42790U 17036AB 22258.07671240 .00027099 00000-0 76274-3 0 9991 2 42790 97.1932 301.9531 0007173 6.5245 353.6092 15.36416500290995 VENTA 1 1 42791U 17036AC 22258.06116725 .00014332 00000-0 48104-3 0 9990 2 42791 97.1919 298.2032 0008907 16.8334 343.3202 15.30932962290767 Robusta 1B 1 42792U 17036AD 22258.10659982 .00017460 00000-0 55916-3 0 9997 2 42792 97.1914 299.0816 0008524 15.7243 344.4263 15.32406593290840 D-SAT 1 42794U 17036AF 22258.50155902 .00002363 00000-0 20110-3 0 9990 2 42794 97.4550 259.1924 0123375 142.9773 218.0040 14.92958684284919 TechnoSat 1 42829U 17042E 22258.55835862 .00001373 00000-0 14013-3 0 9996 2 42829 97.4117 107.4074 0015450 68.2230 292.0632 14.92043679281522 AO-91 1 43017U 17073E 22258.52691755 .00004013 00000-0 30391-3 0 9999 2 43017 97.6608 149.0163 0245144 252.6524 104.7744 14.81997821260457 PICSAT 1 43132U 18004X 22258.21406939 .00024390 00000-0 75337-3 0 9995 2 43132 97.3655 334.1981 0007979 48.5172 311.6754 15.33500724260159 AO-92 1 43137U 18004AC 22258.14770516 .00016433 00000-0 55231-3 0 9997 2 43137 97.3619 332.5559 0008377 52.6801 307.5202 15.30869152260067 TianYi 2 1 43155U 18008A 22258.61709191 .00008465 00000-0 43822-3 0 9993 2 43155 97.3444 314.1378 0015668 185.3707 329.0860 15.16350980256936 Zhou Enlai 1 43156U 18008B 22258.64350025 .00008096 00000-0 42208-3 0 9992 2 43156 97.3495 314.0677 0012959 185.0436 326.2083 15.16150656256866 TianYi 6 1 43158U 18008D 22258.14728243 .00007773 00000-0 41903-3 0 9992 2 43158 97.3463 311.3781 0012219 186.5099 231.1128 15.14985734256684 S-Net D 1 43186U 18014G 22258.53568026 .00002482 00000-0 21404-3 0 9990 2 43186 97.6470 162.5272 0010431 3.1431 356.9855 14.98168971252401 S-Net B 1 43187U 18014H 22258.53593386 .00002503 00000-0 21577-3 0 9993 2 43187 97.6466 162.4745 0010419 3.2098 356.9190 14.98166842252404 S-Net A 1 43188U 18014J 22258.53624189 .00002533 00000-0 21834-3 0 9999 2 43188 97.6471 162.5434 0010421 3.4286 356.7006 14.98166651252403 S-Net C 1 43189U 18014K 22258.53710933 .00002511 00000-0 21647-3 0 9991 2 43189 97.6465 162.4631 0010393 3.5151 356.6143 14.98163488250959 FMN 1 1 43192U 18015A 22258.60240505 .00043062 00000-0 97924-3 0 9994 2 43192 97.5456 46.4826 0009865 68.9071 62.8927 15.42820434257322 Shaonian Xing 1 43199U 18015H 22258.57479862 .00023786 00000-0 66055-3 0 9999 2 43199 97.5255 40.7140 0013226 81.4450 46.3641 15.36803069257271 SurfSat 1 43614U 18070B 22258.48058411 .00056063 00000-0 64080-3 0 9995 2 43614 93.0186 137.1157 0010417 38.6530 321.5480 15.61926267225085 CP-7 DAVE 1 43615U 18070C 22258.38898123 .00070757 00000-0 87328-3 0 9993 2 43615 93.0171 136.8253 0011356 40.4647 319.7461 15.59859773225022 ELFIN-B 1 43616U 18070D 22258.26017750 .00617375 16077-3 15104-2 0 9999 2 43616 93.0002 139.0114 0003557 81.2389 278.9298 15.96174593225516 ELFIN-A 1 43617U 18070E 22258.19050688 .02401119 19965-6 13401-2 0 9998 2 43617 93.0012 140.7397 0004225 197.6616 162.4535 16.19421292225606 CubeBel-1 1 43666U 18083E 22258.48752661 .00010914 00000-0 44461-3 0 9990 2 43666 97.4157 286.2092 0013190 24.8143 81.1208 15.24572109215199 Changshagaoxin 1 43669U 18083H 22258.49704639 .00010301 00000-0 44125-3 0 9993 2 43669 97.4113 281.9189 0010100 25.9832 78.0244 15.22922290215001 Ten-Koh 1 43677U 18084G 22258.32860686 .00001891 00000-0 19543-3 0 9990 2 43677 97.9762 29.2657 0015232 339.9524 20.1094 14.91293107211072 PO-101 1 43678U 18084H 22258.50413224 .00000736 00000-0 77854-4 0 9990 2 43678 97.9836 32.8943 0009818 356.5922 3.5211 14.92297567211287 IRVINE 01 1 43693U 18088D 22258.42796723 .00073607 00000-0 16167-2 0 9995 2 43693 85.0242 249.5699 0014791 123.4976 236.7694 15.43630931214072 QO-100 1 43700U 18090A 22258.23591243 .00000135 00000-0 00000-0 0 9999 2 43700 0.0200 151.6688 0002380 62.1398 251.0860 1.00273186 13931 Reaktor Hello World 1 43743U 18096AA 22258.17220684 .00021383 00000-0 61125-3 0 9999 2 43743 97.3472 337.7527 0015772 97.8686 262.4349 15.35879822211728 MinXSS-2 1 43758U 18099A 22258.45029661 .00004256 00000-0 36667-3 0 9994 2 43758 97.6153 324.1878 0013924 326.0644 33.9687 14.97787599206579 AO-95 1 43770U 18099N 22258.44894865 .00003650 00000-0 32335-3 0 9998 2 43770 97.6120 322.4468 0013219 338.9418 21.1258 14.96794254206478 RANGE-B 1 43772U 18099Q 22258.46968567 .00004650 00000-0 40301-3 0 9996 2 43772 97.6242 324.3615 0012150 326.1635 33.8810 14.97523340206508 RANGE-A 1 43773U 18099R 22258.13080980 .00002628 00000-0 23723-3 0 9997 2 43773 97.6056 320.8710 0012157 328.6248 31.4247 14.96292717206400 MOVE-II 1 43780U 18099Y 22258.45812229 .00005548 00000-0 47019-3 0 9997 2 43780 97.6158 323.8123 0011359 333.8654 26.1994 14.98314772206536 SNUSat 2 1 43782U 18099AA 22258.41989341 .00002498 00000-0 22210-3 0 9992 2 43782 97.6135 322.9047 0011356 325.9265 34.1227 14.96940591206490 SnugLite 1 43784U 18099AC 22258.44375815 .00003024 00000-0 26605-3 0 9990 2 43784 97.6083 322.5569 0013721 330.5726 29.4722 14.97179217206522 ITASat 1 1 43786U 18099AE 22258.43487943 .00002139 00000-0 19110-3 0 9996 2 43786 97.6149 323.3991 0014066 330.8002 29.2432 14.96889657206518 EAGLET 1 1 43790U 18099AJ 22258.18765757 .00002491 00000-0 22114-3 0 9994 2 43790 97.6144 323.7001 0012194 336.1616 23.9040 14.97006472206214 ESEO 1 43792U 18099AL 22258.15930416 .00000940 00000-0 88018-4 0 9992 2 43792 97.6102 322.7545 0012510 334.8750 25.1862 14.96343710206245 CSIM 1 43793U 18099AM 22258.45757927 .00005985 00000-0 49824-3 0 9995 2 43793 97.6162 324.8019 0010524 322.1758 37.8724 14.98989453206364 Astrocast 0.1 1 43798U 18099AS 22258.18313341 .00005493 00000-0 46793-3 0 9994 2 43798 97.6148 324.3039 0010870 308.6137 51.4112 14.98126879206542 JO-97 1 43803U 18099AX 22258.15328058 .00003241 00000-0 28267-3 0 9994 2 43803 97.6122 322.9091 0013779 332.4329 27.6161 14.97473119206496 Suomi 100 1 43804U 18099AY 22258.44481837 .00003050 00000-0 26718-3 0 9999 2 43804 97.6103 323.0958 0013808 329.1835 30.8575 14.97345988206541 Al Farabi 2 1 43805U 18099AZ 22258.59534141 .00004117 00000-0 35271-3 0 9992 2 43805 97.6134 323.8337 0013500 328.2346 31.8067 14.98022847206590 CHOMPTT 1 43855U 18104G 22258.54558212 .00011429 00000-0 40569-3 0 9994 2 43855 85.0386 351.0347 0012810 261.8053 98.1739 15.28830390208485 ISAT 1 43879U 18111D 22258.49424498 .00004736 00000-0 40065-3 0 9994 2 43879 97.6562 162.4613 0013610 27.7356 332.4589 14.98440858203158 UWE-4 1 43880U 18111E 22258.28847372 .00005348 00000-0 45041-3 0 9992 2 43880 97.6585 163.0150 0012626 29.8290 330.3650 14.98568416203151 Sparrow 1 43881U 18111F 22258.49631357 .00004804 00000-0 40317-3 0 9997 2 43881 97.6610 163.4824 0013030 26.6773 333.5118 14.98752660203198 Lume 1 1 43908U 18111AJ 22258.24306375 .00016217 00000-0 52629-3 0 9999 2 43908 97.1764 143.2502 0019746 110.7552 249.5808 15.31838917207130 FO-99 1 43937U 19003F 22258.32920332 .00019272 00000-0 61078-3 0 9998 2 43937 97.1244 288.2653 0019625 186.0446 174.0563 15.32563384203732 MYSat 1 1 44045U 18092F 22258.48602557 .00078642 00000-0 83402-3 0 9990 2 44045 51.6294 340.7689 0007531 54.5253 305.6443 15.63366024201917 AstroCast 0.2 1 44083U 19018F 22258.10574348 .00020143 00000-0 72747-3 0 9999 2 44083 97.3127 315.3177 0010613 160.3371 199.8281 15.28459701192179 AISTechSat 3 1 44103U 19018AB 22258.39234605 .00013865 00000-0 49585-3 0 9999 2 44103 97.2988 315.8957 0012186 168.9119 191.2392 15.28844808192386 AISat 1 1 44104U 19018AC 22258.20240576 .00013542 00000-0 36497-3 0 9994 2 44104 97.3914 341.7359 0051127 170.0432 190.1838 15.36588328193375 Prox-1 1 44339U 19036A 22258.56920325 .00004171 00000-0 89169-3 0 9992 2 44339 24.0018 344.3913 0010791 119.9535 240.2029 14.55489837171493 Oculus-ASR 1 44348U 19036K 22258.41400989 .00105422 -40696-5 85606-3 0 9999 2 44348 28.5010 287.2565 0208325 248.0012 109.8334 15.45873399178438 NO-104 1 44354U 19036R 22258.42585737 .00118407 -33550-5 89686-3 0 9992 2 44354 28.5244 270.4809 0197566 271.4460 86.3519 15.49254042178605 Move-IIb 1 44398U 19038N 22258.58133457 .00015492 00000-0 71023-3 0 9991 2 44398 97.6329 228.8974 0021073 168.8993 191.2715 15.20348530176723 SONATE 1 44400U 19038Q 22258.54880784 .00005593 00000-0 29862-3 0 9998 2 44400 97.6463 227.5391 0023187 177.9208 182.2121 15.15314133176573 BeeSat 9 1 44412U 19038AC 22258.46269223 .00010529 00000-0 51768-3 0 9996 2 44412 97.6449 228.5193 0019822 176.9300 183.2058 15.18047337176341 JAISAT-1 1 44419U 19038F 22258.48625449 .00010178 00000-0 49405-3 0 9996 2 44419 97.6451 229.4502 0018962 173.6160 186.5319 15.18518350176712 LightSail-2 1 44420U 19036AC 22258.31208604 .00222689 00000-0 21262-1 0 9999 2 44420 23.9986 257.3918 0006884 217.1130 142.8894 14.91028781170453 Taurus 1 1 44530U 19059C 22258.30125221 .00002248 00000-0 62515-3 0 9993 2 44530 98.5499 357.7045 0013355 202.4860 157.5774 14.47362059158845 Duchifat 3 1 44854U 19089C 22258.42539243 .00004075 00000-0 31421-3 0 9993 2 44854 36.9667 286.7592 0008689 237.3596 122.6374 15.01575611151463 OPS-SAT 1 44878U 19092F 22258.47593430 .00014394 00000-0 64334-3 0 9990 2 44878 97.4820 81.7438 0012748 31.5937 328.6062 15.21362565151879 TO-108 1 44881U 19093C 22258.52583419 .00000620 00000-0 85135-4 0 9997 2 44881 97.8887 336.4271 0013634 252.2315 107.7420 14.81812745148114 FloripaSat 1 1 44885U 19093G 22258.47079690 .00002056 00000-0 25674-3 0 9992 2 44885 97.8931 337.9044 0013141 257.6182 102.3577 14.83405300148195 RS-44 1 44909U 19096E 22258.49199379 .00000037 00000-0 93969-4 0 9991 2 44909 82.5252 170.4711 0218329 109.0890 253.3991 12.79714835127026 BY70-2 1 45857U 20042B 22258.32964232 .00007400 00000-0 96667-3 0 9995 2 45857 97.9514 334.3512 0010821 178.9969 181.1339 14.80728666118754 UPMSat 2 1 46276U 20061E 22258.19206692 .00005784 00000-0 28156-3 0 9997 2 46276 97.3840 326.9679 0001447 149.8978 210.2339 15.18753741112491 AmicalSat 1 46287U 20061R 22258.48706516 .00006405 00000-0 36202-3 0 9993 2 46287 97.4383 326.0854 0001891 4.4520 355.6728 15.13429457112084 SALSAT 1 46495U 20068K 22258.40565479 .00003458 00000-0 24864-3 0 9990 2 46495 97.7331 199.7727 0015808 338.0809 21.9739 15.04837581107714 BY70-3 1 46839U 20079N 22258.48664958 .00032236 00000-0 67062-3 0 9997 2 46839 97.1912 329.5775 0004661 22.5726 103.2965 15.45558191104139 CAPE 3 1 47309U 21002A 22258.54190396 .00012555 00000-0 48276-3 0 9992 2 47309 60.6849 25.3228 0036077 37.2113 323.1465 15.26203524 92195 AO-109 1 47311U 21002C 22258.50214854 .00011132 00000-0 42656-3 0 9993 2 47311 60.6864 22.9540 0032004 37.6265 322.7054 15.26551178 92205 MiTEE 1 1 47314U 21002F 22258.55617492 .00024318 00000-0 75649-3 0 9994 2 47314 60.6832 13.2981 0029439 29.7691 330.5068 15.32868017 92390 ExoCube 2 1 47319U 21002L 22258.52714742 .00010295 00000-0 40036-3 0 9993 2 47319 60.6853 24.1355 0033330 38.3674 321.9776 15.26094275 92150 UVSQ-SAT 1 47438U 21006AB 22258.43570849 .00009190 00000-0 47330-3 0 9993 2 47438 97.4285 315.6099 0010587 329.1145 30.9465 15.16573104 90911 YUSAT 1 1 47439U 21006AC 22258.11182972 .00009333 00000-0 47269-3 0 9995 2 47439 97.4290 315.4647 0010396 329.7665 30.2968 15.17160052 90877 SOMP 2b 1 47445U 21006AJ 22258.38859502 .00008720 00000-0 45415-3 0 9991 2 47445 97.4253 315.1507 0010385 334.1081 25.9631 15.16193460 90893 IDEASSat 1 47458U 21006AX 22258.11610607 .00007071 00000-0 37092-3 0 9997 2 47458 97.4344 315.4633 0009552 334.1571 25.9184 15.16019258 90849 CubeSX-Sirius-HSE 1 47951U 21022V 22258.49863602 .00004193 00000-0 27501-3 0 9995 2 47951 97.5191 156.1139 0020141 193.8573 291.3553 15.08048872 81561 CubeSX-HSE 1 47952U 21022W 22258.48129808 .00005036 00000-0 32893-3 0 9995 2 47952 97.5192 156.1246 0020192 193.9042 284.5559 15.08110971 81560 KSU-Cubesat 1 47954U 21022Y 22258.27577798 .00007256 00000-0 46838-3 0 9999 2 47954 97.5183 156.0622 0019803 193.3475 166.7233 15.08396662 81260 GRBAlpha 1 47959U 21022AD 22258.47525581 .00005349 00000-0 34878-3 0 9991 2 47959 97.5194 156.1623 0020046 194.4588 269.9473 15.08144937 80387 Orbicraft-Zorkiy 1 47960U 21022AE 22258.57567225 .00004921 00000-0 31969-3 0 9998 2 47960 97.5216 156.4367 0019498 192.7350 286.3835 15.08325644 81099 STECCO 1 47962U 21022AG 22258.50989583 .00008384 00000-0 50966-3 0 9993 2 47962 97.5185 157.2933 0015197 184.1715 165.2661 15.10613193 80459 DO-111 1 47963U 21022AH 22258.52449947 .00020822 00000-0 10863-2 0 9993 2 47963 97.5207 158.9407 0016070 172.6003 187.5470 15.15858096 80589 MO-110 1 47964U 21022AJ 22258.26820327 .00011267 00000-0 67508-3 0 9992 2 47964 97.5187 157.3722 0017867 181.8768 178.2398 15.11018482 80449 FEES 1 48082U 21022AL 22258.22516060 .00015113 00000-0 88331-3 0 9997 2 48082 97.5190 157.3453 0014181 176.1958 183.9383 15.11894835 80148 RamSat 1 48850U 98067SL 22257.32680141 .00260478 00000-0 86813-3 0 9994 2 48850 51.6330 218.5925 0005006 88.3575 271.8004 15.88978912 71361 TUBIN 1 48900U 21059X 22258.44294115 .00004292 00000-0 23665-3 0 9999 2 48900 97.5652 27.1125 0010658 147.0187 286.6477 15.14474451 67530 IT-SPINS 1 49017U 21013G 22258.48851022 .00011416 00000-0 42361-3 0 9999 2 49017 51.5961 328.3323 0008680 41.1350 319.0282 15.28008734 67545 LEDSAT 1 49069U 21073D 22258.50165286 .00004227 00000-0 26748-3 0 9998 2 49069 97.5168 329.6112 0026282 349.1748 10.8912 15.09252929 59410 CUTE 1 49263U 21088D 22258.18308490 .00006234 00000-0 45706-3 0 9995 2 49263 97.5822 324.3123 0021824 117.7421 242.6022 15.03678168 52906 Binar-1 1 49272U 98067SR 22258.31199024 .00546963 13593-3 12662-2 0 9998 2 49272 51.6244 216.0674 0003336 105.0792 255.0585 15.96576898 53870 TeikyoSat 4 1 49396U 21102B 22258.10496481 .00001957 00000-0 15819-3 0 9998 2 49396 97.5282 313.3273 0016047 317.8574 42.1416 15.00829944 46494 Z-Sat 1 49399U 21102E 22258.45955145 .00001896 00000-0 14543-3 0 9991 2 49399 97.5255 314.7504 0021870 285.7729 74.1085 15.02801065 46600 KOSEN 1 1 49402U 21102H 22258.39055279 .00003002 00000-0 22110-3 0 9998 2 49402 97.5192 314.8651 0020907 275.4612 84.4229 15.03925456 46624 HO-113 1 50466U 21131B 22258.52575532 .00000244 00000-0 94391-4 0 9992 2 50466 98.5757 335.7179 0003778 228.4964 131.5899 14.38524129 37868 Tevel 1 50999U 22002R 22258.45896581 .00009070 00000-0 47553-3 0 9996 2 50999 97.4733 324.1054 0012449 107.0756 13.8952 15.15929614 37058 Grizu-263a 1 51025U 22002AT 22258.00698217 .00019022 00000-0 91618-3 0 9993 2 51025 97.4899 324.7539 0013634 112.5602 247.7076 15.18708177 37028 NO-116 1 51031U 22002AZ 22258.17656238 .00015795 00000-0 79357-3 0 9994 2 51031 97.4853 324.5352 0014161 111.5349 248.7395 15.17268548 37037 IRIS-A 1 51044U 22002BN 22258.43462165 .00006072 00000-0 33692-3 0 9991 2 51044 97.4740 323.6893 0010703 111.3045 248.9330 15.14070987 37020 DELFI-PQ 1 51074U 22002CU 22258.14049308 .00018074 00000-0 86560-3 0 9999 2 51074 97.4978 325.4491 0014467 139.0511 221.1813 15.18906565 37063 SO-115 1 51080U 22002DA 22257.64394132 .00009817 00000-0 48904-3 0 9993 2 51080 97.4996 324.7753 0014391 140.6997 219.5284 15.17683874 36971 SO-114 1 51081U 22002DB 22258.43549459 .00012919 00000-0 64174-3 0 9990 2 51081 97.4984 325.5321 0014759 138.0567 222.1800 15.17706121 37090 OreSat0 1 52017U 22026K 22258.55356015 .00009542 00000-0 49584-3 0 9999 2 52017 97.5070 257.3098 0025413 325.6614 34.2975 15.16016792 27839 Planetum 1 1 52738U 22057G 22258.30541390 .00008698 00000-0 49982-3 0 9991 2 52738 97.5198 11.5581 0007446 213.8540 146.2216 15.12712887 17014 Foresail-1 1 52766U 22057AL 22258.61767543 .00005356 00000-0 29913-3 0 9996 2 52766 97.5296 12.2314 0013133 197.1657 219.5923 15.13873513 17079 SNUGLITE 2 1 52899U 22065F 22258.51798588 .00000694 00000-0 15922-3 0 9999 2 52899 98.0313 46.8348 0008319 3.5380 356.5894 14.58417028 10823 CTIM 1 52950U 22074G 22258.57171403 .00013681 00000-0 55062-3 0 9993 2 52950 45.0098 68.9279 0004033 296.3325 63.7151 15.24874590 11482 GREENCUBE 1 53106U 22080B 22258.34266426 -.00000003 00000-0 00000-0 0 9993 2 53106 70.1577 55.2008 0008582 243.2223 116.7559 6.42557972 4099 AstroBioCubeSat 1 53107U 22080C 22257.45252629 -.00000003 00000-0 00000-0 0 9995 2 53107 70.1514 55.5630 0013349 235.2654 124.6873 6.42111459 3947 CELESTA 1 53111U 22080G 22255.16019017 -.00000003 00000-0 00000 0 0 9997 2 53111 70.1086 56.1818 0009300 227.1361 132.8517 6.42544045 3765 RS4S 1 53306U 98067TR 22258.44461198 .00056701 00000-0 85734-3 0 9992 2 53306 51.6401 248.6911 0000806 171.8944 188.2060 15.54139373 8672 RS3S 1 53308U 98067TT 22258.50856016 .00053846 00000-0 81609-3 0 9992 2 53308 51.6401 248.3680 0001082 154.5094 205.5950 15.54096323 8741 RS1S 1 53309U 98067TU 22258.50645060 .00055269 00000-0 83360-3 0 9995 2 53309 51.6397 248.3522 0000683 209.7555 150.3397 15.54218833 8690 RS5S 1 53310U 98067TV 22258.50824361 .00055852 00000-0 84610-3 0 9997 2 53310 51.6401 248.3666 0000506 198.3377 161.7595 15.54093413 8721 RS6S 1 53311U 98067TW 22258.50248489 .00055707 00000-0 83463-3 0 9993 2 53311 51.6395 248.3253 0001444 138.5143 221.5958 15.54397838 8743 RS9S 1 53312U 98067TX 22258.50461486 .00054016 00000-0 81427-3 0 9998 2 53312 51.6401 248.3411 0000754 227.8829 132.2098 15.54243248 8685 RS12S 1 53313U 98067TY 22258.50312341 .00055859 00000-0 84013-3 0 9994 2 53313 51.6400 248.3316 0000268 236.3856 123.7109 15.54291672 8732 /EX
